| time (UTC) | temp F | wind direction | speed MPH | gust MPH | rain 1hr in | rain 24hr in | rain mn in | humidity % | barometer mb |
| 20260903045825 | 82 | 82 | 3.0 | 6.0 | 0.00 | 0.00 | 0.00 | 74 | 1012.3 |
| 20260903045320 | 82 | 81 | 6.0 | 7.0 | 0.00 | 0.00 | 0.00 | 72 | 1012.4 |
| 20260903044817 | 82 | 116 | 2.0 | 6.0 | 0.00 | 0.00 | 0.00 | 71 | 1012.2 |
| 20260903044312 | 82 | 103 | 2.0 | 5.0 | 0.00 | 0.00 | 0.00 | 71 | 1012.1 |
| 20260903043809 | 83 | 105 | 2.0 | 6.0 | 0.00 | 0.00 | 0.00 | 71 | 1012.2 |
| 20260903043308 | 83 | 70 | 1.0 | 2.0 | 0.00 | 0.00 | 0.00 | 70 | 1012.1 |
| 20260903042807 | 83 | 83 | 4.0 | 5.0 | 0.00 | 0.00 | 0.00 | 69 | 1012.1 |
| 20260903042306 | 84 | 92 | 0.0 | 6.0 | 0.00 | 0.00 | 0.00 | 68 | 1011.9 |
| 20260903041758 | 84 | 66 | 2.0 | 3.0 | 0.00 | 0.00 | 0.00 | 67 | 1012.1 |
| 20260903041249 | 84 | 128 | 2.0 | 6.0 | 0.00 | 0.00 | 0.00 | 68 | 1012.2 |
| 20260903040748 | 84 | 41 | 5.0 | 7.0 | 0.00 | 0.00 | 0.00 | 67 | 1012.3 |
| 20260903040243 | 84 | 102 | 3.0 | 6.0 | 0.00 | 0.00 | 0.00 | 67 | 1012.5 |
| 20260903035739 | 84 | 87 | 2.0 | 6.0 | 0.00 | 0.00 | 0.00 | 67 | 1012.4 |
| 20260903035235 | 84 | 91 | 3.0 | 8.0 | 0.00 | 0.00 | 0.00 | 66 | 1012.1 |
| 20260903034735 | 84 | 126 | 1.0 | 3.0 | 0.00 | 0.00 | 0.00 | 66 | 1012.2 |
| 20260903034230 | 85 | 71 | 1.0 | 6.0 | 0.00 | 0.00 | 0.00 | 66 | 1012.2 |
| 20260903033725 | 85 | 99 | 3.0 | 5.0 | 0.00 | 0.00 | 0.00 | 65 | 1012.2 |
| 20260903033220 | 85 | 95 | 3.0 | 3.0 | 0.00 | 0.00 | 0.00 | 65 | 1012.1 |
| 20260903032714 | 85 | 77 | 1.0 | 2.0 | 0.00 | 0.00 | 0.00 | 65 | 1012.1 |
| 20260903032211 | 86 | 96 | 1.0 | 3.0 | 0.00 | 0.00 | 0.00 | 64 | 1012.0 |
| 20260903031706 | 86 | 78 | 2.0 | 3.0 | 0.00 | 0.00 | 0.00 | 63 | 1012.2 |
| 20260903031205 | 86 | 88 | 1.0 | 5.0 | 0.00 | 0.00 | 0.00 | 64 | 1012.2 |
| 20260903030702 | 86 | 68 | 1.0 | 5.0 | 0.00 | 0.00 | 0.00 | 63 | 1012.0 |
| 20260903030157 | 86 | 75 | 1.0 | 3.0 | 0.00 | 0.00 | 0.00 | 63 | 1012.0 |
| 20260903025652 | 87 | 87 | 0.0 | 6.0 | 0.00 | 0.00 | 0.00 | 62 | 1011.9 |
| 20260903025148 | 87 | 103 | 5.0 | 7.0 | 0.00 | 0.00 | 0.00 | 61 | 1011.8 |
| 20260903024642 | 87 | 77 | 5.0 | 7.0 | 0.00 | 0.00 | 0.00 | 62 | 1011.9 |
| 20260903024142 | 88 | 329 | 3.0 | 5.0 | 0.00 | 0.00 | 0.00 | 61 | 1011.9 |
| 20260903023638 | 88 | 88 | 1.0 | 3.0 | 0.00 | 0.00 | 0.00 | 60 | 1011.8 |
| 20260903023138 | 89 | 108 | 1.0 | 7.0 | 0.00 | 0.00 | 0.00 | 59 | 1011.6 |
| 20260903022632 | 89 | 48 | 4.0 | 6.0 | 0.00 | 0.00 | 0.00 | 58 | 1011.6 |
| 20260903022131 | 89 | 59 | 1.0 | 2.0 | 0.00 | 0.00 | 0.00 | 58 | 1011.4 |
| 20260903021626 | 89 | 88 | 2.0 | 7.0 | 0.00 | 0.00 | 0.00 | 57 | 1011.3 |
| 20260903021120 | 90 | 81 | 2.0 | 3.0 | 0.00 | 0.00 | 0.00 | 56 | 1011.4 |
| 20260903020616 | 90 | 70 | 1.0 | 6.0 | 0.00 | 0.00 | 0.00 | 56 | 1011.4 |
| 20260903020116 | 90 | 57 | 3.0 | 5.0 | 0.00 | 0.00 | 0.00 | 55 | 1011.0 |
| 20260903015612 | 90 | 44 | 4.0 | 6.0 | 0.00 | 0.00 | 0.00 | 55 | 1011.2 |
| 20260903015107 | 91 | 71 | 1.0 | 3.0 | 0.00 | 0.00 | 0.00 | 55 | 1011.0 |
| 20260903014606 | 91 | 58 | 0.0 | 3.0 | 0.00 | 0.00 | 0.00 | 55 | 1010.9 |
| 20260903014101 | 90 | 68 | 2.0 | 5.0 | 0.00 | 0.00 | 0.00 | 55 | 1011.0 |
| 20260903013555 | 91 | 79 | 1.0 | 2.0 | 0.00 | 0.00 | 0.00 | 54 | 1010.7 |
| 20260903013049 | 91 | 78 | 0.0 | 3.0 | 0.00 | 0.00 | 0.00 | 54 | 1010.7 |
| 20260903012549 | 91 | 81 | 1.0 | 5.0 | 0.00 | 0.00 | 0.00 | 54 | 1010.7 |
| 20260903012043 | 91 | 99 | 1.0 | 3.0 | 0.00 | 0.00 | 0.00 | 54 | 1010.6 |
| 20260903011537 | 91 | 88 | 2.0 | 3.0 | 0.00 | 0.00 | 0.00 | 53 | 1010.8 |
| 20260903011032 | 92 | 81 | 2.0 | 3.0 | 0.00 | 0.00 | 0.00 | 53 | 1010.7 |
| 20260903010527 | 92 | 87 | 0.0 | 3.0 | 0.00 | 0.00 | 0.00 | 53 | 1010.5 |
| 20260903010025 | 92 | 75 | 2.0 | 3.0 | 0.00 | 0.00 | 0.00 | 53 | 1010.7 |
| 20260903005521 | 92 | 71 | 2.0 | 3.0 | 0.00 | 0.00 | 0.00 | 53 | 1010.3 |
| 20260903005016 | 92 | 78 | 0.0 | 3.0 | 0.00 | 0.00 | 0.00 | 52 | 1010.4 |
| 20260903004516 | 93 | 98 | 1.0 | 5.0 | 0.00 | 0.00 | 0.00 | 52 | 1010.4 |
| 20260903004011 | 93 | 71 | 2.0 | 5.0 | 0.00 | 0.00 | 0.00 | 51 | 1010.4 |
| 20260903003506 | 93 | 76 | 0.0 | 6.0 | 0.00 | 0.00 | 0.00 | 51 | 1010.5 |
| 20260903003002 | 93 | 93 | 2.0 | 3.0 | 0.00 | 0.00 | 0.00 | 51 | 1010.5 |
| 20260903002501 | 93 | 97 | 2.0 | 6.0 | 0.00 | 0.00 | 0.00 | 51 | 1010.3 |
| 20260903002001 | 93 | 76 | 1.0 | 5.0 | 0.00 | 0.00 | 0.00 | 51 | 1010.4 |
| 20260903001456 | 93 | 57 | 3.0 | 5.0 | 0.00 | 0.00 | 0.00 | 51 | 1010.1 |
| 20260903000950 | 94 | 82 | 3.0 | 5.0 | 0.00 | 0.00 | 0.00 | 51 | 1010.2 |
| 20260903000447 | 94 | 71 | 2.0 | 5.0 | 0.00 | 0.00 | 0.00 | 50 | 1010.1 |
| 20260902235943 | 94 | 80 | 1.0 | 3.0 | 0.00 | 0.00 | 0.00 | 51 | 1010.3 |
| 20260902235438 | 94 | 81 | 2.0 | 5.0 | 0.00 | 0.00 | 0.00 | 50 | 1010.4 |
| 20260902234932 | 94 | 121 | 2.0 | 6.0 | 0.00 | 0.00 | 0.00 | 50 | 1010.3 |
| 20260902234428 | 94 | 91 | 0.0 | 3.0 | 0.00 | 0.00 | 0.00 | 50 | 1010.3 |
| 20260902233927 | 95 | 64 | 4.0 | 6.0 | 0.00 | 0.00 | 0.00 | 48 | 1010.1 |
| 20260902233421 | 95 | 139 | 4.0 | 7.0 | 0.00 | 0.00 | 0.00 | 48 | 1010.1 |
| 20260902232920 | 96 | 77 | 1.0 | 5.0 | 0.00 | 0.00 | 0.00 | 47 | 1010.1 |
| 20260902232415 | 98 | 99 | 1.0 | 7.0 | 0.00 | 0.00 | 0.00 | 45 | 1010.2 |
| 20260902231915 | 98 | 144 | 3.0 | 5.0 | 0.00 | 0.00 | 0.00 | 43 | 1010.0 |
| 20260902231410 | 99 | 73 | 3.0 | 7.0 | 0.00 | 0.00 | 0.00 | 42 | 1010.0 |
| 20260902230905 | 99 | 101 | 3.0 | 6.0 | 0.00 | 0.00 | 0.00 | 42 | 1010.2 |
| 20260902230405 | 100 | 81 | 1.0 | 2.0 | 0.00 | 0.00 | 0.00 | 40 | 1010.1 |
| 20260902225904 | 101 | 83 | 0.0 | 1.0 | 0.00 | 0.00 | 0.00 | 41 | 1009.8 |
| 20260902225359 | 100 | 72 | 2.0 | 3.0 | 0.00 | 0.00 | 0.00 | 41 | 1010.0 |
| 20260902224857 | 100 | 84 | 0.0 | 3.0 | 0.00 | 0.00 | 0.00 | 42 | 1009.9 |
| 20260902224352 | 100 | 104 | 3.0 | 5.0 | 0.00 | 0.00 | 0.00 | 41 | 1010.0 |
| 20260902223849 | 99 | 70 | 0.0 | 2.0 | 0.00 | 0.00 | 0.00 | 42 | 1010.0 |
| 20260902223348 | 98 | 77 | 0.0 | 1.0 | 0.00 | 0.00 | 0.00 | 43 | 1010.0 |
| 20260902222843 | 99 | 78 | 0.0 | 2.0 | 0.00 | 0.00 | 0.00 | 42 | 1010.0 |
| 20260902222342 | 100 | 93 | 1.0 | 2.0 | 0.00 | 0.00 | 0.00 | 40 | 1010.1 |
| 20260902221837 | 102 | 237 | 1.0 | 2.0 | 0.00 | 0.00 | 0.00 | 39 | 1010.0 |
| 20260902221336 | 101 | 45 | 3.0 | 3.0 | 0.00 | 0.00 | 0.00 | 39 | 1010.0 |
| 20260902220831 | 100 | 71 | 1.0 | 3.0 | 0.00 | 0.00 | 0.00 | 40 | 1009.9 |
| 20260902220331 | 101 | 103 | 0.0 | 5.0 | 0.00 | 0.00 | 0.00 | 38 | 1010.2 |
| 20260902215826 | 102 | 84 | 3.0 | 6.0 | 0.00 | 0.00 | 0.00 | 38 | 1010.3 |
| 20260902215321 | 102 | 95 | 1.0 | 1.0 | 0.00 | 0.00 | 0.00 | 38 | 1010.0 |
| 20260902214817 | 101 | 39 | 0.0 | 2.0 | 0.00 | 0.00 | 0.00 | 39 | 1010.2 |
| 20260902214316 | 102 | 42 | 1.0 | 6.0 | 0.00 | 0.00 | 0.00 | 37 | 1010.4 |
| 20260902213811 | 102 | 82 | 0.0 | 3.0 | 0.00 | 0.00 | 0.00 | 37 | 1010.4 |
| 20260902213306 | 102 | 72 | 1.0 | 2.0 | 0.00 | 0.00 | 0.00 | 38 | 1010.5 |
| 20260902212805 | 102 | 128 | 0.0 | 1.0 | 0.00 | 0.00 | 0.00 | 39 | 1010.4 |
| 20260902212305 | 101 | 56 | 1.0 | 2.0 | 0.00 | 0.00 | 0.00 | 38 | 1010.3 |
| 20260902211758 | 101 | 66 | 0.0 | 2.0 | 0.00 | 0.00 | 0.00 | 39 | 1010.4 |
| 20260902211253 | 100 | 95 | 3.0 | 5.0 | 0.00 | 0.00 | 0.00 | 40 | 1010.7 |
| 20260902210748 | 101 | 169 | 1.0 | 2.0 | 0.00 | 0.00 | 0.00 | 40 | 1010.6 |
| 20260902210243 | 100 | 75 | 0.0 | 7.0 | 0.00 | 0.00 | 0.00 | 40 | 1010.7 |
| 20260902205741 | 101 | 75 | 2.0 | 6.0 | 0.00 | 0.00 | 0.00 | 40 | 1010.7 |
| 20260902205236 | 101 | 59 | 1.0 | 1.0 | 0.00 | 0.00 | 0.00 | 39 | 1011.0 |
| 20260902204731 | 100 | 75 | 0.0 | 3.0 | 0.00 | 0.00 | 0.00 | 41 | 1010.9 |
| 20260902204226 | 99 | 85 | 1.0 | 2.0 | 0.00 | 0.00 | 0.00 | 41 | 1011.1 |
| 20260902203716 | 99 | 103 | 1.0 | 5.0 | 0.00 | 0.00 | 0.00 | 42 | 1011.2 |
| 20260902203216 | 100 | 91 | 1.0 | 1.0 | 0.00 | 0.00 | 0.00 | 41 | 1011.1 |
| 20260902202710 | 100 | 93 | 0.0 | 5.0 | 0.00 | 0.00 | 0.00 | 42 | 1011.3 |
| 20260902202207 | 100 | 44 | 1.0 | 2.0 | 0.00 | 0.00 | 0.00 | 42 | 1011.4 |
| 20260902201703 | 100 | 106 | 0.0 | 2.0 | 0.00 | 0.00 | 0.00 | 41 | 1011.4 |
| 20260902201203 | 99 | 52 | 1.0 | 1.0 | 0.00 | 0.00 | 0.00 | 43 | 1011.4 |
| 20260902200657 | 100 | 77 | 0.0 | 2.0 | 0.00 | 0.00 | 0.00 | 43 | 1011.7 |
| 20260902200154 | 100 | 53 | 5.0 | 6.0 | 0.00 | 0.00 | 0.00 | 42 | 1011.6 |
| 20260902195649 | 101 | 40 | 2.0 | 5.0 | 0.00 | 0.00 | 0.00 | 41 | 1011.9 |
| 20260902195148 | 100 | 56 | 1.0 | 2.0 | 0.00 | 0.00 | 0.00 | 41 | 1012.0 |
| 20260902194647 | 100 | 71 | 1.0 | 1.0 | 0.00 | 0.00 | 0.00 | 41 | 1012.1 |
| 20260902194142 | 99 | 62 | 1.0 | 5.0 | 0.00 | 0.00 | 0.00 | 42 | 1012.1 |
| 20260902193639 | 100 | 17 | 1.0 | 2.0 | 0.00 | 0.00 | 0.00 | 42 | 1012.1 |
| 20260902193139 | 99 | 43 | 1.0 | 2.0 | 0.00 | 0.00 | 0.00 | 44 | 1012.2 |
| 20260902192637 | 98 | 135 | 2.0 | 6.0 | 0.00 | 0.00 | 0.00 | 45 | 1012.3 |
| 20260902192137 | 99 | 102 | 0.0 | 1.0 | 0.00 | 0.00 | 0.00 | 42 | 1012.2 |
| 20260902191631 | 99 | 83 | 2.0 | 2.0 | 0.00 | 0.00 | 0.00 | 43 | 1012.5 |
| 20260902191125 | 98 | 75 | 0.0 | 3.0 | 0.00 | 0.00 | 0.00 | 44 | 1012.5 |
| 20260902190621 | 98 | 73 | 0.0 | 1.0 | 0.00 | 0.00 | 0.00 | 45 | 1012.5 |
| 20260902190116 | 97 | 60 | 1.0 | 2.0 | 0.00 | 0.00 | 0.00 | 46 | 1012.6 |
| 20260902185612 | 97 | 65 | 2.0 | 5.0 | 0.00 | 0.00 | 0.00 | 46 | 1013.1 |
| 20260902185108 | 98 | 98 | 2.0 | 5.0 | 0.00 | 0.00 | 0.00 | 45 | 1012.8 |
| 20260902184603 | 98 | 63 | 0.0 | 2.0 | 0.00 | 0.00 | 0.00 | 46 | 1013.0 |
| 20260902184058 | 97 | 72 | 0.0 | 2.0 | 0.00 | 0.00 | 0.00 | 46 | 1012.8 |
| 20260902183554 | 98 | 80 | 0.0 | 2.0 | 0.00 | 0.00 | 0.00 | 46 | 1013.3 |
| 20260902183050 | 97 | 72 | 1.0 | 2.0 | 0.00 | 0.00 | 0.00 | 47 | 1013.2 |
| 20260902182546 | 96 | 56 | 0.0 | 3.0 | 0.00 | 0.00 | 0.00 | 50 | 1013.3 |
| 20260902182042 | 97 | 52 | 1.0 | 2.0 | 0.00 | 0.00 | 0.00 | 48 | 1013.5 |
| 20260902181538 | 96 | 65 | 0.0 | 2.0 | 0.00 | 0.00 | 0.00 | 49 | 1013.5 |
| 20260902181032 | 96 | 82 | 2.0 | 5.0 | 0.00 | 0.00 | 0.00 | 49 | 1013.6 |
| 20260902180527 | 95 | 90 | 1.0 | 2.0 | 0.00 | 0.00 | 0.00 | 49 | 1013.8 |
| 20260902180023 | 95 | 90 | 1.0 | 1.0 | 0.00 | 0.00 | 0.00 | 51 | 1013.9 |
| 20260902175522 | 95 | 108 | 2.0 | 6.0 | 0.00 | 0.00 | 0.00 | 51 | 1014.0 |
| 20260902175019 | 95 | 0 | 0.0 | 3.0 | 0.00 | 0.00 | 0.00 | 51 | 1014.1 |
| 20260902174515 | 95 | 54 | 2.0 | 3.0 | 0.00 | 0.00 | 0.00 | 50 | 1014.2 |
| 20260902174010 | 96 | 48 | 2.0 | 3.0 | 0.00 | 0.00 | 0.00 | 51 | 1014.3 |
| 20260902173510 | 95 | 61 | 1.0 | 2.0 | 0.00 | 0.00 | 0.00 | 53 | 1014.2 |
| 20260902173005 | 94 | 84 | 0.0 | 2.0 | 0.00 | 0.00 | 0.00 | 54 | 1014.4 |
| 20260902172504 | 94 | 93 | 0.0 | 2.0 | 0.00 | 0.00 | 0.00 | 54 | 1014.5 |
| 20260902171959 | 94 | 63 | 1.0 | 2.0 | 0.00 | 0.00 | 0.00 | 53 | 1014.5 |
| 20260902171455 | 94 | 82 | 0.0 | 2.0 | 0.00 | 0.00 | 0.00 | 53 | 1014.8 |
| 20260902170950 | 94 | 64 | 1.0 | 5.0 | 0.00 | 0.00 | 0.00 | 54 | 1014.8 |
| 20260902170450 | 92 | 119 | 2.0 | 5.0 | 0.00 | 0.00 | 0.00 | 55 | 1014.7 |
| 20260902165946 | 92 | 144 | 3.0 | 3.0 | 0.00 | 0.00 | 0.00 | 55 | 1014.9 |
| 20260902165446 | 93 | 99 | 1.0 | 3.0 | 0.00 | 0.00 | 0.00 | 54 | 1014.9 |
| 20260902164940 | 92 | 37 | 1.0 | 2.0 | 0.00 | 0.00 | 0.00 | 55 | 1015.0 |
| 20260902164436 | 94 | 62 | 0.0 | 2.0 | 0.00 | 0.00 | 0.00 | 56 | 1014.9 |
| 20260902163935 | 93 | 96 | 2.0 | 3.0 | 0.00 | 0.00 | 0.00 | 57 | 1015.0 |
| 20260902163430 | 92 | 80 | 2.0 | 3.0 | 0.00 | 0.00 | 0.00 | 56 | 1015.1 |
| 20260902162928 | 92 | 55 | 1.0 | 2.0 | 0.00 | 0.00 | 0.00 | 58 | 1015.3 |
| 20260902162423 | 92 | 83 | 1.0 | 2.0 | 0.00 | 0.00 | 0.00 | 58 | 1015.2 |
| 20260902161923 | 91 | 82 | 1.0 | 2.0 | 0.00 | 0.00 | 0.00 | 56 | 1015.2 |
| 20260902161418 | 91 | 85 | 1.0 | 3.0 | 0.00 | 0.00 | 0.00 | 57 | 1015.1 |
| 20260902160914 | 90 | 82 | 1.0 | 6.0 | 0.00 | 0.00 | 0.00 | 59 | 1015.2 |
| 20260902160410 | 91 | 83 | 2.0 | 6.0 | 0.00 | 0.00 | 0.00 | 60 | 1015.5 |
| 20260902155908 | 91 | 139 | 1.0 | 1.0 | 0.00 | 0.00 | 0.00 | 60 | 1015.1 |
| 20260902155403 | 89 | 107 | 2.0 | 3.0 | 0.00 | 0.00 | 0.00 | 62 | 1015.2 |
| 20260902154856 | 90 | 74 | 3.0 | 6.0 | 0.00 | 0.00 | 0.00 | 62 | 1015.5 |
| 20260902154352 | 89 | 78 | 1.0 | 3.0 | 0.00 | 0.00 | 0.00 | 63 | 1015.2 |
| 20260902153851 | 90 | 80 | 1.0 | 2.0 | 0.00 | 0.00 | 0.00 | 62 | 1015.2 |
| 20260902153350 | 89 | 70 | 0.0 | 5.0 | 0.00 | 0.00 | 0.00 | 64 | 1015.4 |
| 20260902152847 | 89 | 70 | 1.0 | 2.0 | 0.00 | 0.00 | 0.00 | 64 | 1015.3 |
| 20260902152343 | 89 | 52 | 3.0 | 5.0 | 0.00 | 0.00 | 0.00 | 66 | 1015.4 |
| 20260902151838 | 89 | 96 | 3.0 | 5.0 | 0.00 | 0.00 | 0.00 | 65 | 1015.2 |
| 20260902151332 | 88 | 60 | 1.0 | 5.0 | 0.00 | 0.00 | 0.00 | 66 | 1015.0 |
| 20260902150827 | 89 | 70 | 0.0 | 2.0 | 0.00 | 0.00 | 0.00 | 66 | 1015.1 |
| 20260902150324 | 89 | 79 | 1.0 | 1.0 | 0.00 | 0.00 | 0.00 | 64 | 1015.2 |
| 20260902145823 | 89 | 83 | 0.0 | 1.0 | 0.00 | 0.00 | 0.00 | 66 | 1014.8 |
| 20260902145318 | 88 | 71 | 1.0 | 2.0 | 0.00 | 0.00 | 0.00 | 67 | 1014.9 |
| 20260902144814 | 88 | 71 | 0.0 | 0.0 | 0.00 | 0.00 | 0.00 | 66 | 1014.9 |
| 20260902144310 | 88 | 101 | 1.0 | 2.0 | 0.00 | 0.00 | 0.00 | 66 | 1014.8 |
| 20260902143804 | 87 | 27 | 1.0 | 3.0 | 0.00 | 0.00 | 0.00 | 68 | 1014.9 |
| 20260902143259 | 87 | 79 | 0.0 | 2.0 | 0.00 | 0.00 | 0.00 | 68 | 1014.8 |
| 20260902142756 | 86 | 72 | 1.0 | 2.0 | 0.00 | 0.00 | 0.00 | 68 | 1014.8 |
| 20260902142251 | 86 | 49 | 3.0 | 3.0 | 0.00 | 0.00 | 0.00 | 69 | 1014.8 |
| 20260902141750 | 86 | 93 | 1.0 | 2.0 | 0.00 | 0.00 | 0.00 | 69 | 1015.0 |
| 20260902141246 | 85 | 85 | 0.0 | 2.0 | 0.00 | 0.00 | 0.00 | 71 | 1015.1 |
| 20260902140741 | 85 | 73 | 1.0 | 3.0 | 0.00 | 0.00 | 0.00 | 70 | 1014.9 |
| 20260902140236 | 84 | 51 | 2.0 | 2.0 | 0.00 | 0.00 | 0.00 | 71 | 1014.8 |
| 20260902135735 | 84 | 64 | 3.0 | 5.0 | 0.00 | 0.00 | 0.00 | 71 | 1015.1 |
| 20260902135231 | 84 | 111 | 2.0 | 3.0 | 0.00 | 0.00 | 0.00 | 73 | 1014.8 |
| 20260902134730 | 83 | 70 | 1.0 | 3.0 | 0.00 | 0.00 | 0.00 | 73 | 1014.8 |
| 20260902134226 | 82 | 66 | 1.0 | 2.0 | 0.00 | 0.00 | 0.00 | 75 | 1014.8 |
| 20260902133721 | 82 | 74 | 1.0 | 2.0 | 0.00 | 0.00 | 0.00 | 76 | 1014.9 |
| 20260902133220 | 81 | 86 | 1.0 | 3.0 | 0.00 | 0.00 | 0.00 | 78 | 1015.0 |
| 20260902132715 | 81 | 70 | 0.0 | 1.0 | 0.00 | 0.00 | 0.00 | 78 | 1014.9 |
| 20260902132211 | 80 | 66 | 3.0 | 3.0 | 0.00 | 0.00 | 0.00 | 79 | 1014.9 |
| 20260902131706 | 80 | 71 | 2.0 | 2.0 | 0.00 | 0.00 | 0.00 | 79 | 1014.8 |
| 20260902131203 | 80 | 108 | 2.0 | 2.0 | 0.00 | 0.00 | 0.00 | 79 | 1014.6 |
| 20260902130657 | 80 | 86 | 0.0 | 2.0 | 0.00 | 0.00 | 0.00 | 79 | 1014.7 |
| 20260902130153 | 80 | 77 | 0.0 | 1.0 | 0.00 | 0.00 | 0.00 | 79 | 1014.7 |
| 20260902125643 | 80 | 75 | 1.0 | 1.0 | 0.00 | 0.00 | 0.00 | 80 | 1014.6 |
| 20260902125138 | 79 | 89 | 0.0 | 3.0 | 0.00 | 0.00 | 0.00 | 80 | 1014.5 |
| 20260902124635 | 79 | 77 | 2.0 | 2.0 | 0.00 | 0.00 | 0.00 | 80 | 1014.6 |
| 20260902124134 | 79 | 82 | 1.0 | 1.0 | 0.00 | 0.00 | 0.00 | 81 | 1014.5 |
| 20260902123631 | 79 | 77 | 1.0 | 3.0 | 0.00 | 0.00 | 0.00 | 81 | 1014.5 |
| 20260902123130 | 78 | 83 | 1.0 | 1.0 | 0.00 | 0.00 | 0.00 | 82 | 1014.4 |
| 20260902122625 | 78 | 70 | 0.0 | 1.0 | 0.00 | 0.00 | 0.00 | 82 | 1014.4 |
| 20260902122121 | 78 | 77 | 0.0 | 1.0 | 0.00 | 0.00 | 0.00 | 82 | 1014.4 |
| 20260902121621 | 78 | 81 | 1.0 | 1.0 | 0.00 | 0.00 | 0.00 | 83 | 1014.3 |
| 20260902121115 | 79 | 74 | 0.0 | 1.0 | 0.00 | 0.00 | 0.00 | 82 | 1014.5 |
| 20260902120612 | 79 | 80 | 0.0 | 1.0 | 0.00 | 0.00 | 0.00 | 82 | 1014.2 |
| 20260902120108 | 79 | 85 | 1.0 | 2.0 | 0.00 | 0.00 | 0.00 | 83 | 1014.3 |
| 20260902115603 | 79 | 88 | 0.0 | 2.0 | 0.00 | 0.00 | 0.00 | 82 | 1014.1 |
| 20260902115059 | 79 | 75 | 1.0 | 1.0 | 0.00 | 0.00 | 0.00 | 82 | 1014.4 |
| 20260902114555 | 79 | 70 | 1.0 | 2.0 | 0.00 | 0.00 | 0.00 | 81 | 1014.3 |
| 20260902114054 | 79 | 73 | 0.0 | 0.0 | 0.00 | 0.00 | 0.00 | 81 | 1014.3 |
| 20260902113550 | 79 | 76 | 1.0 | 1.0 | 0.00 | 0.00 | 0.00 | 80 | 1014.1 |
| 20260902113045 | 79 | 69 | 0.0 | 1.0 | 0.00 | 0.00 | 0.00 | 80 | 1014.3 |
| 20260902112540 | 79 | 74 | 0.0 | 0.0 | 0.00 | 0.00 | 0.00 | 79 | 1014.1 |
| 20260902112037 | 79 | 71 | 0.0 | 0.0 | 0.00 | 0.00 | 0.00 | 78 | 1014.1 |
| 20260902111533 | 79 | 70 | 0.0 | 0.0 | 0.00 | 0.00 | 0.00 | 77 | 1014.2 |
| 20260902111028 | 79 | 69 | 0.0 | 0.0 | 0.00 | 0.00 | 0.00 | 77 | 1014.2 |
| 20260902110524 | 79 | 69 | 0.0 | 1.0 | 0.00 | 0.00 | 0.00 | 77 | 1014.4 |
| 20260902110020 | 79 | 70 | 1.0 | 1.0 | 0.00 | 0.00 | 0.00 | 78 | 1014.3 |
| 20260902105519 | 79 | 73 | 0.0 | 0.0 | 0.00 | 0.00 | 0.00 | 77 | 1014.5 |
| 20260902105014 | 80 | 71 | 0.0 | 0.0 | 0.00 | 0.00 | 0.00 | 76 | 1014.4 |
| 20260902104510 | 80 | 69 | 0.0 | 0.0 | 0.00 | 0.00 | 0.00 | 76 | 1014.3 |
| 20260902104004 | 80 | 68 | 0.0 | 1.0 | 0.00 | 0.00 | 0.00 | 76 | 1014.2 |
| 20260902103500 | 80 | 72 | 0.0 | 0.0 | 0.00 | 0.00 | 0.00 | 75 | 1014.1 |
| 20260902102955 | 80 | 72 | 0.0 | 0.0 | 0.00 | 0.00 | 0.00 | 75 | 1014.3 |
| 20260902102451 | 80 | 80 | 0.0 | 0.0 | 0.00 | 0.00 | 0.00 | 74 | 1014.4 |
| 20260902101948 | 80 | 74 | 0.0 | 0.0 | 0.00 | 0.00 | 0.00 | 74 | 1014.2 |
| 20260902101448 | 80 | 73 | 0.0 | 0.0 | 0.00 | 0.00 | 0.00 | 74 | 1014.0 |
| 20260902100946 | 81 | 72 | 0.0 | 0.0 | 0.00 | 0.00 | 0.00 | 74 | 1014.2 |
| 20260902100442 | 81 | 74 | 0.0 | 0.0 | 0.00 | 0.00 | 0.00 | 74 | 1014.2 |
| 20260902095942 | 81 | 76 | 0.0 | 0.0 | 0.00 | 0.00 | 0.00 | 74 | 1014.3 |
| 20260902095436 | 80 | 81 | 0.0 | 0.0 | 0.00 | 0.00 | 0.00 | 75 | 1014.1 |
| 20260902094935 | 80 | 71 | 0.0 | 0.0 | 0.00 | 0.00 | 0.00 | 75 | 1014.1 |
| 20260902094432 | 80 | 71 | 0.0 | 0.0 | 0.00 | 0.00 | 0.00 | 75 | 1014.1 |
| 20260902093926 | 80 | 70 | 0.0 | 0.0 | 0.00 | 0.00 | 0.00 | 74 | 1014.1 |
| 20260902093422 | 81 | 70 | 0.0 | 0.0 | 0.00 | 0.00 | 0.00 | 74 | 1014.1 |
| 20260902092920 | 81 | 78 | 0.0 | 0.0 | 0.00 | 0.00 | 0.00 | 74 | 1014.1 |
| 20260902092416 | 81 | 75 | 0.0 | 0.0 | 0.00 | 0.00 | 0.00 | 74 | 1013.9 |
| 20260902091911 | 81 | 73 | 0.0 | 0.0 | 0.00 | 0.00 | 0.00 | 74 | 1014.0 |
| 20260902091406 | 81 | 74 | 0.0 | 0.0 | 0.00 | 0.00 | 0.00 | 74 | 1013.9 |
| 20260902090903 | 81 | 71 | 0.0 | 0.0 | 0.00 | 0.00 | 0.00 | 74 | 1014.2 |
| 20260902090402 | 81 | 71 | 0.0 | 0.0 | 0.00 | 0.00 | 0.00 | 73 | 1014.1 |
| 20260902085901 | 81 | 71 | 0.0 | 0.0 | 0.00 | 0.00 | 0.00 | 73 | 1014.0 |
| 20260902085356 | 82 | 74 | 0.0 | 0.0 | 0.00 | 0.00 | 0.00 | 72 | 1013.9 |
| 20260902084852 | 82 | 73 | 0.0 | 0.0 | 0.00 | 0.00 | 0.00 | 72 | 1014.0 |
| 20260902084348 | 82 | 76 | 0.0 | 0.0 | 0.00 | 0.00 | 0.00 | 72 | 1014.0 |
| 20260902083843 | 82 | 72 | 0.0 | 0.0 | 0.00 | 0.00 | 0.00 | 71 | 1014.0 |
| 20260902083338 | 82 | 75 | 0.0 | 0.0 | 0.00 | 0.00 | 0.00 | 71 | 1013.9 |
| 20260902082833 | 82 | 73 | 0.0 | 0.0 | 0.00 | 0.00 | 0.00 | 71 | 1013.9 |
| 20260902082329 | 83 | 74 | 0.0 | 0.0 | 0.00 | 0.00 | 0.00 | 70 | 1014.0 |
| 20260902081825 | 83 | 74 | 0.0 | 0.0 | 0.00 | 0.00 | 0.00 | 70 | 1014.0 |
| 20260902081320 | 83 | 95 | 0.0 | 0.0 | 0.00 | 0.00 | 0.00 | 70 | 1014.0 |
| 20260902080814 | 83 | 76 | 0.0 | 1.0 | 0.00 | 0.00 | 0.00 | 70 | 1014.0 |
| 20260902080312 | 83 | 72 | 0.0 | 0.0 | 0.00 | 0.00 | 0.00 | 69 | 1014.1 |
| 20260902075811 | 83 | 77 | 0.0 | 1.0 | 0.00 | 0.00 | 0.00 | 69 | 1013.9 |
| 20260902075307 | 83 | 80 | 2.0 | 2.0 | 0.00 | 0.00 | 0.00 | 69 | 1013.9 |
| 20260902074802 | 84 | 77 | 0.0 | 2.0 | 0.00 | 0.00 | 0.00 | 68 | 1014.0 |
| 20260902074258 | 84 | 84 | 0.0 | 1.0 | 0.00 | 0.00 | 0.00 | 68 | 1014.1 |
| 20260902073753 | 84 | 77 | 0.0 | 1.0 | 0.00 | 0.00 | 0.00 | 68 | 1014.0 |
| 20260902073249 | 84 | 84 | 0.0 | 0.0 | 0.00 | 0.00 | 0.00 | 68 | 1014.1 |
| 20260902072744 | 84 | 79 | 0.0 | 1.0 | 0.00 | 0.00 | 0.00 | 68 | 1014.1 |
| 20260902072240 | 84 | 74 | 0.0 | 0.0 | 0.00 | 0.00 | 0.00 | 68 | 1014.1 |
| 20260902071736 | 84 | 77 | 0.0 | 0.0 | 0.00 | 0.00 | 0.00 | 68 | 1014.0 |
| 20260902071231 | 84 | 118 | 1.0 | 1.0 | 0.00 | 0.00 | 0.00 | 68 | 1014.1 |
| 20260902070728 | 84 | 76 | 0.0 | 0.0 | 0.00 | 0.00 | 0.00 | 68 | 1013.9 |
| 20260902070227 | 84 | 75 | 0.0 | 0.0 | 0.00 | 0.00 | 0.00 | 68 | 1014.0 |
| 20260902065726 | 84 | 77 | 0.0 | 1.0 | 0.00 | 0.00 | 0.00 | 68 | 1014.2 |
| 20260902065221 | 84 | 77 | 0.0 | 2.0 | 0.00 | 0.00 | 0.00 | 68 | 1014.0 |
| 20260902064717 | 84 | 82 | 0.0 | 1.0 | 0.00 | 0.00 | 0.00 | 68 | 1014.1 |
| 20260902064212 | 85 | 84 | 1.0 | 1.0 | 0.00 | 0.00 | 0.00 | 68 | 1013.9 |
| 20260902063708 | 85 | 81 | 1.0 | 2.0 | 0.00 | 0.00 | 0.00 | 68 | 1014.0 |
| 20260902063207 | 85 | 81 | 0.0 | 1.0 | 0.00 | 0.00 | 0.00 | 67 | 1013.8 |
| 20260902062702 | 85 | 78 | 0.0 | 2.0 | 0.00 | 0.00 | 0.00 | 67 | 1013.9 |
| 20260902062157 | 85 | 76 | 0.0 | 0.0 | 0.00 | 0.00 | 0.00 | 67 | 1013.9 |
| 20260902061655 | 85 | 89 | 0.0 | 0.0 | 0.00 | 0.00 | 0.00 | 67 | 1013.8 |
| 20260902061151 | 85 | 79 | 2.0 | 3.0 | 0.00 | 0.00 | 0.00 | 67 | 1013.9 |
| 20260902060648 | 86 | 81 | 0.0 | 1.0 | 0.00 | 0.00 | 0.00 | 66 | 1013.9 |
| 20260902060144 | 86 | 102 | 0.0 | 2.0 | 0.00 | 0.00 | 0.00 | 66 | 1013.8 |
| 20260902055639 | 86 | 105 | 1.0 | 1.0 | 0.00 | 0.00 | 0.00 | 66 | 1013.9 |
| 20260902055135 | 86 | 110 | 1.0 | 2.0 | 0.00 | 0.00 | 0.00 | 65 | 1014.1 |
| 20260902054630 | 86 | 90 | 1.0 | 1.0 | 0.00 | 0.00 | 0.00 | 65 | 1014.0 |
| 20260902054126 | 86 | 85 | 0.0 | 1.0 | 0.00 | 0.00 | 0.00 | 64 | 1013.8 |
| 20260902053620 | 87 | 109 | 0.0 | 2.0 | 0.00 | 0.00 | 0.00 | 64 | 1014.0 |
| 20260902053115 | 87 | 77 | 0.0 | 1.0 | 0.00 | 0.00 | 0.00 | 64 | 1013.9 |
| 20260902052609 | 87 | 87 | 1.0 | 2.0 | 0.00 | 0.00 | 0.00 | 63 | 1013.9 |
| 20260902052105 | 87 | 74 | 0.0 | 1.0 | 0.00 | 0.00 | 0.00 | 63 | 1013.9 |
| 20260902051604 | 87 | 124 | 2.0 | 3.0 | 0.00 | 0.00 | 0.00 | 63 | 1014.1 |
| 20260902051103 | 87 | 95 | 1.0 | 5.0 | 0.00 | 0.00 | 0.00 | 63 | 1013.7 |
| 20260902050558 | 87 | 75 | 0.0 | 1.0 | 0.00 | 0.00 | 0.00 | 62 | 1013.6 |